FW7515 Weather Reports


Display with metric or nautical units.
time (UTC)temp
F
wind
direction
speed
MPH
gust
MPH
rain 1hr
in
rain 24hr
in
rain mn
in
humidity
%
barometer
mb
20260903122033 77 115 2.0 4.0 0.00 0.00 0.00 81 1013.4
20260903121531 77 140 2.0 5.0 0.00 0.00 0.00 81 1013.4
20260903121029 77 124 2.0 5.0 0.00 0.00 0.00 81 1013.4
20260903120527 77 57 2.0 4.0 0.00 0.00 0.00 81 1013.6
20260903120025 77 77 2.0 4.0 0.00 0.00 0.00 81 1013.7
20260903115523 77 113 2.0 5.0 0.00 0.00 0.00 81 1013.5
20260903115022 77 101 2.0 6.0 0.00 0.00 0.00 81 1013.4
20260903114520 77 123 2.0 4.0 0.00 0.00 0.00 82 1013.4
20260903114018 77 132 2.0 4.0 0.00 0.00 0.00 82 1013.4
20260903113516 77 110 2.0 4.0 0.00 0.00 0.00 81 1013.5
20260903113055 77 123 3.0 5.0 0.00 0.00 0.00 81 1013.4
20260903112533 77 101 2.0 4.0 0.00 0.00 0.00 81 1013.3
20260903112031 77 89 1.0 4.0 0.00 0.00 0.00 82 1013.4
20260903111528 77 118 2.0 4.0 0.00 0.00 0.00 82 1013.4
20260903111027 77 98 2.0 3.0 0.00 0.00 0.00 81 1013.2
20260903110525 77 61 3.0 5.0 0.00 0.00 0.00 81 1013.1
20260903110023 77 88 3.0 5.0 0.00 0.00 0.00 81 1013.2
20260903105522 77 123 2.0 6.0 0.00 0.00 0.00 82 1013.0
20260903105039 77 123 1.0 4.0 0.00 0.00 0.00 82 1013.1
20260903104537 77 116 1.0 3.0 0.00 0.00 0.00 81 1013.0
20260903104016 77 117 2.0 4.0 0.00 0.00 0.00 81 1013.1
20260903103533 77 129 1.0 4.0 0.00 0.00 0.00 81 1013.2
20260903103032 77 115 1.0 3.0 0.00 0.00 0.00 81 1013.2
20260903102551 77 108 1.0 2.0 0.00 0.00 0.00 81 1013.2
20260903102049 77 76 1.0 2.0 0.00 0.00 0.00 81 1013.1
20260903101528 77 64 1.0 2.0 0.00 0.00 0.00 81 1013.1
20260903101046 77 68 1.0 2.0 0.00 0.00 0.00 80 1013.1
20260903100523 77 76 2.0 3.0 0.00 0.00 0.00 80 1013.2
20260903100021 77 75 1.0 3.0 0.00 0.00 0.00 80 1013.1
20260903095541 78 73 2.0 3.0 0.00 0.00 0.00 80 1013.0
20260903095018 78 81 2.0 3.0 0.00 0.00 0.00 79 1013.0
20260903094516 78 75 2.0 4.0 0.00 0.00 0.00 79 1012.9
20260903094035 78 88 1.0 4.0 0.00 0.00 0.00 79 1013.1
20260903093612 78 76 1.0 2.0 0.00 0.00 0.00 79 1013.0
20260903093031 78 88 1.0 2.0 0.00 0.00 0.00 79 1013.0
20260903092528 78 105 1.0 3.0 0.00 0.00 0.00 79 1013.0
20260903092027 78 95 1.0 2.0 0.00 0.00 0.00 79 1013.0
20260903091525 78 89 1.0 2.0 0.00 0.00 0.00 79 1013.1
20260903091023 78 92 0.0 2.0 0.00 0.00 0.00 78 1013.2
20260903090522 78 137 0.0 2.0 0.00 0.00 0.00 78 1013.2
20260903090019 78 142 0.0 2.0 0.00 0.00 0.00 78 1013.2
20260903085518 78 136 0.0 2.0 0.00 0.00 0.00 78 1013.1
20260903085016 78 0.0 2.0 0.00 0.00 0.00 78 1013.0
20260903084534 78 142 1.0 2.0 0.00 0.00 0.00 77 1013.1
20260903084032 78 169 0.0 1.0 0.00 0.00 0.00 77 1013.3
20260903083530 78 236 0.0 2.0 0.00 0.00 0.00 77 1013.2
20260903083049 79 142 1.0 2.0 0.00 0.00 0.00 77 1013.2
20260903082528 79 127 1.0 3.0 0.00 0.00 0.00 77 1013.1
20260903082026 79 132 0.0 2.0 0.00 0.00 0.00 77 1013.2
20260903081526 79 141 0.0 2.0 0.00 0.00 0.00 76 1013.1
20260903081022 79 121 1.0 2.0 0.00 0.00 0.00 76 1013.2
20260903080521 79 93 1.0 3.0 0.00 0.00 0.00 76 1013.2
20260903080019 79 81 1.0 2.0 0.00 0.00 0.00 76 1013.2
20260903075517 79 81 1.0 2.0 0.00 0.00 0.00 76 1013.1
20260903075016 79 99 1.0 3.0 0.00 0.00 0.00 75 1013.2
20260903074535 79 90 2.0 3.0 0.00 0.00 0.00 75 1013.2
20260903074033 80 94 1.0 3.0 0.00 0.00 0.00 75 1013.1
20260903073531 79 114 1.0 3.0 0.00 0.00 0.00 75 1013.0
20260903073030 80 138 1.0 2.0 0.00 0.00 0.00 74 1013.1
20260903072528 80 123 1.0 2.0 0.00 0.00 0.00 74 1013.0
20260903072026 80 105 1.0 2.0 0.00 0.00 0.00 74 1012.9
20260903071525 80 81 1.0 3.0 0.00 0.00 0.00 73 1013.0
20260903071043 80 111 1.0 4.0 0.00 0.00 0.00 73 1013.1
20260903070521 80 116 2.0 4.0 0.00 0.00 0.00 73 1013.2
20260903070105 80 124 2.0 5.0 0.00 0.00 0.00 72 1013.0
20260903065517 81 121 1.0 5.0 0.00 0.00 0.00 72 1013.3
20260903065015 81 100 2.0 5.0 0.00 0.00 0.00 71 1013.5
20260903064534 81 119 2.0 5.0 0.00 0.00 0.00 71 1013.5
20260903064112 81 111 3.0 6.0 0.00 0.00 0.00 71 1013.5
20260903063531 81 92 1.0 4.0 0.00 0.00 0.00 71 1013.4
20260903063029 81 113 2.0 5.0 0.00 0.00 0.00 70 1013.4
20260903062527 81 114 4.0 9.0 0.00 0.00 0.00 70 1013.5
20260903062025 82 109 3.0 7.0 0.00 0.00 0.00 69 1013.7
20260903061524 82 129 3.0 6.0 0.00 0.00 0.00 69 1013.7
20260903061042 82 112 3.0 6.0 0.00 0.00 0.00 69 1013.7
20260903060520 82 109 3.0 7.0 0.00 0.00 0.00 68 1013.6
20260903060018 82 118 5.0 9.0 0.00 0.00 0.00 68 1013.6
20260903055516 82 121 3.0 8.0 0.00 0.00 0.00 67 1013.8
20260903055034 83 104 3.0 6.0 0.00 0.00 0.00 67 1013.7
20260903054532 83 104 4.0 10.0 0.00 0.00 0.00 67 1013.7
20260903054030 83 92 3.0 8.0 0.00 0.00 0.00 67 1013.7
20260903053548 83 86 3.0 6.0 0.00 0.00 0.00 66 1013.6
20260903053026 83 96 3.0 10.0 0.00 0.00 0.00 66 1013.6
20260903052525 83 93 3.0 8.0 0.00 0.00 0.00 65 1013.7
20260903052022 84 92 3.0 6.0 0.00 0.00 0.00 64 1013.8
20260903051540 84 102 4.0 8.0 0.00 0.00 0.00 63 1013.7
20260903051021 84 117 3.0 7.0 0.00 0.00 0.00 63 1013.8
20260903050517 84 99 2.0 6.0 0.00 0.00 0.00 63 1013.6
20260903050016 84 101 3.0 6.0 0.00 0.00 0.00 62 1013.6
20260903045535 85 104 4.0 8.0 0.00 0.00 0.00 62 1013.6
20260903045033 85 99 4.0 7.0 0.00 0.00 0.00 61 1013.6
20260903044531 85 97 3.0 8.0 0.00 0.00 0.00 61 1013.5
20260903044050 85 94 3.0 6.0 0.00 0.00 0.00 62 1013.5
20260903043528 85 106 2.0 4.0 0.00 0.00 0.00 62 1013.5
20260903043025 85 107 2.0 4.0 0.00 0.00 0.00 61 1013.6
20260903042543 85 112 2.0 4.0 0.00 0.00 0.00 61 1013.6
20260903042021 86 131 3.0 7.0 0.00 0.00 0.00 61 1013.7
20260903041520 86 156 2.0 10.0 0.00 0.00 0.00 60 1013.6
20260903041018 86 118 3.0 10.0 0.00 0.00 0.00 60 1013.6
20260903040536 86 116 4.0 9.0 0.00 0.00 0.00 59 1013.6
20260903040034 86 137 3.0 5.0 0.00 0.00 0.00 59 1013.5
20260903035532 87 134 4.0 9.0 0.00 0.00 0.00 59 1013.5
20260903035030 87 130 4.0 11.0 0.00 0.00 0.00 58 1013.7
20260903034528 87 145 4.0 10.0 0.00 0.00 0.00 58 1013.6
20260903034027 87 134 4.0 11.0 0.00 0.00 0.00 58 1013.5
20260903033525 87 148 4.0 9.0 0.00 0.00 0.00 57 1013.6
20260903033023 88 129 3.0 8.0 0.00 0.00 0.00 57 1013.5
20260903032521 88 142 4.0 8.0 0.00 0.00 0.00 56 1013.6
20260903032020 88 162 1.0 4.0 0.00 0.00 0.00 56 1013.4
20260903031538 88 137 4.0 8.0 0.00 0.00 0.00 55 1013.6
20260903031016 89 171 3.0 7.0 0.00 0.00 0.00 55 1013.6
20260903030515 89 148 4.0 9.0 0.00 0.00 0.00 54 1013.5
20260903030034 89 126 5.0 12.0 0.00 0.00 0.00 54 1013.4
20260903025532 90 156 5.0 13.0 0.00 0.00 0.00 53 1013.2
20260903025051 90 153 4.0 9.0 0.00 0.00 0.00 52 1013.2
20260903024529 90 134 4.0 11.0 0.00 0.00 0.00 51 1013.2
20260903024028 90 135 3.0 7.0 0.00 0.00 0.00 51 1013.1
20260903023526 91 130 3.0 7.0 0.00 0.00 0.00 50 1012.8
20260903023024 91 127 4.0 13.0 0.00 0.00 0.00 50 1012.8
20260903022523 91 135 2.0 7.0 0.00 0.00 0.00 50 1012.6
20260903022021 91 126 4.0 10.0 0.00 0.00 0.00 49 1012.6
20260903021519 91 125 5.0 10.0 0.00 0.00 0.00 49 1012.6
20260903021017 92 126 4.0 9.0 0.00 0.00 0.00 49 1012.5
20260903020535 92 119 5.0 11.0 0.00 0.00 0.00 49 1012.2
20260903020053 92 99 5.0 8.0 0.00 0.00 0.00 49 1012.2
20260903015531 92 117 5.0 11.0 0.00 0.00 0.00 49 1012.2
20260903015029 92 100 4.0 9.0 0.00 0.00 0.00 50 1012.1
20260903014527 92 108 4.0 8.0 0.00 0.00 0.00 49 1012.2
20260903014025 92 116 5.0 10.0 0.00 0.00 0.00 49 1012.2
20260903013523 92 116 4.0 13.0 0.00 0.00 0.00 49 1012.0
20260903013021 92 111 6.0 10.0 0.00 0.00 0.00 49 1011.9
20260903012519 93 108 4.0 10.0 0.00 0.00 0.00 48 1012.0
20260903012017 93 110 5.0 9.0 0.00 0.00 0.00 48 1012.0
20260903011535 93 97 4.0 11.0 0.00 0.00 0.00 48 1011.9
20260903011033 93 98 4.0 8.0 0.00 0.00 0.00 48 1011.9
20260903010530 93 109 4.0 8.0 0.00 0.00 0.00 48 1011.8
20260903010029 93 111 4.0 10.0 0.00 0.00 0.00 47 1011.8
20260903005526 93 101 4.0 12.0 0.00 0.00 0.00 47 1011.9
20260903005024 94 95 4.0 9.0 0.00 0.00 0.00 47 1011.8
20260903004523 94 107 5.0 11.0 0.00 0.00 0.00 47 1011.8
20260903004021 94 94 5.0 10.0 0.00 0.00 0.00 47 1011.9
20260903003518 95 95 6.0 17.0 0.00 0.00 0.00 46 1011.7
20260903003016 96 100 5.0 12.0 0.00 0.00 0.00 45 1011.8
20260903002534 96 88 6.0 14.0 0.00 0.00 0.00 41 1011.6
20260903002032 97 87 5.0 11.0 0.00 0.00 0.00 40 1011.6
20260903001530 97 87 6.0 13.0 0.00 0.00 0.00 40 1011.6
20260903001028 97 90 5.0 11.0 0.00 0.00 0.00 39 1011.6
20260903000526 97 94 3.0 6.0 0.00 0.00 0.00 39 1011.8
20260903000024 97 86 5.0 12.0 0.00 0.00 0.00 40 1011.6
20260902235522 98 86 6.0 11.0 0.00 0.00 0.00 39 1011.6
20260902235020 98 88 4.0 6.0 0.00 0.00 0.00 39 1011.6
20260902234518 97 84 4.0 10.0 0.00 0.00 0.00 39 1011.5
20260902234017 98 93 6.0 10.0 0.00 0.00 0.00 39 1011.7
20260902233535 98 87 6.0 11.0 0.00 0.00 0.00 38 1011.7
20260902233054 98 80 6.0 12.0 0.00 0.00 0.00 38 1011.7
20260902232531 98 84 4.0 9.0 0.00 0.00 0.00 39 1011.7
20260902232029 98 103 3.0 7.0 0.00 0.00 0.00 39 1011.9
20260902231528 98 103 4.0 10.0 0.00 0.00 0.00 39 1011.7
20260902231026 98 93 4.0 7.0 0.00 0.00 0.00 40 1011.6
20260902230544 98 85 4.0 9.0 0.00 0.00 0.00 40 1011.6
20260902230021 99 81 4.0 9.0 0.00 0.00 0.00 40 1011.7
20260902225519 98 95 3.0 10.0 0.00 0.00 0.00 40 1011.7
20260902225058 99 96 5.0 11.0 0.00 0.00 0.00 40 1011.8
20260902224515 98 90 3.0 8.0 0.00 0.00 0.00 41 1011.7
20260902224033 98 63 5.0 12.0 0.00 0.00 0.00 41 1011.8
20260902223531 98 56 5.0 12.0 0.00 0.00 0.00 41 1011.8
20260902223028 98 70 6.0 13.0 0.00 0.00 0.00 41 1011.9
20260902222545 98 79 4.0 10.0 0.00 0.00 0.00 41 1012.0
20260902222022 98 64 4.0 10.0 0.00 0.00 0.00 40 1012.0
20260902221519 98 47 6.0 9.0 0.00 0.00 0.00 41 1012.0
20260902221017 98 79 5.0 11.0 0.00 0.00 0.00 40 1012.1
20260902220534 98 81 5.0 9.0 0.00 0.00 0.00 40 1012.0
20260902220031 98 84 5.0 11.0 0.00 0.00 0.00 40 1012.1
20260902215529 98 57 7.0 13.0 0.00 0.00 0.00 40 1012.2
20260902215026 98 66 5.0 10.0 0.00 0.00 0.00 38 1012.3
20260902214544 98 73 4.0 10.0 0.00 0.00 0.00 39 1012.2
20260902214022 98 62 4.0 9.0 0.00 0.00 0.00 39 1012.3
20260902213520 98 75 5.0 10.0 0.00 0.00 0.00 39 1012.4
20260902213018 98 80 4.0 8.0 0.00 0.00 0.00 39 1012.5
20260902212534 98 75 5.0 9.0 0.00 0.00 0.00 40 1012.4
20260902212032 98 90 6.0 12.0 0.00 0.00 0.00 40 1012.6
20260902211530 98 87 7.0 13.0 0.00 0.00 0.00 40 1012.5
20260902211028 98 82 4.0 8.0 0.00 0.00 0.00 40 1012.5
20260902210527 98 92 4.0 8.0 0.00 0.00 0.00 40 1012.6
20260902210024 98 88 4.0 9.0 0.00 0.00 0.00 39 1012.8
20260902205522 98 84 4.0 9.0 0.00 0.00 0.00 39 1012.9
20260902205019 99 75 3.0 10.0 0.00 0.00 0.00 38 1012.7
20260902204537 99 77 3.0 7.0 0.00 0.00 0.00 38 1012.8
20260902204036 98 87 4.0 10.0 0.00 0.00 0.00 39 1012.8
20260902203533 98 88 5.0 12.0 0.00 0.00 0.00 39 1012.9
20260902203032 98 64 5.0 11.0 0.00 0.00 0.00 40 1012.9
20260902202530 98 81 4.0 9.0 0.00 0.00 0.00 39 1013.0
20260902202027 98 53 5.0 10.0 0.00 0.00 0.00 40 1013.2
20260902201525 97 58 4.0 12.0 0.00 0.00 0.00 41 1013.3
20260902201023 98 44 4.0 8.0 0.00 0.00 0.00 41 1013.4
20260902200542 98 89 4.0 11.0 0.00 0.00 0.00 41 1013.4
20260902200020 97 59 4.0 8.0 0.00 0.00 0.00 42 1013.5
20260902195518 98 76 6.0 13.0 0.00 0.00 0.00 41 1013.7
20260902195016 97 72 3.0 6.0 0.00 0.00 0.00 42 1013.8
20260902194535 97 71 4.0 9.0 0.00 0.00 0.00 42 1013.9
20260902194034 98 101 3.0 9.0 0.00 0.00 0.00 41 1013.9
20260902193532 97 76 4.0 11.0 0.00 0.00 0.00 42 1013.9
20260902193030 97 94 4.0 9.0 0.00 0.00 0.00 42 1014.0
20260902192529 97 66 3.0 7.0 0.00 0.00 0.00 42 1014.0
20260902192027 97 79 4.0 10.0 0.00 0.00 0.00 43 1014.3
20260902191526 97 84 4.0 10.0 0.00 0.00 0.00 42 1014.4
20260902191024 96 282 2.0 5.0 0.00 0.00 0.00 43 1014.5
20260902190522 96 355 4.0 9.0 0.00 0.00 0.00 43 1014.6
20260902190041 96 61 4.0 8.0 0.00 0.00 0.00 43 1014.5
20260902185519 96 86 3.0 8.0 0.00 0.00 0.00 43 1014.6
20260902185057 97 64 3.0 7.0 0.00 0.00 0.00 43 1014.6
20260902184535 96 89 4.0 9.0 0.00 0.00 0.00 43 1014.7
20260902184033 96 67 5.0 10.0 0.00 0.00 0.00 44 1014.7
20260902183531 98 60 3.0 11.0 0.00 0.00 0.00 42 1014.8
20260902183029 96 125 3.0 7.0 0.00 0.00 0.00 43 1014.9
20260902182547 96 70 4.0 8.0 0.00 0.00 0.00 44 1015.0
20260902182025 96 77 2.0 6.0 0.00 0.00 0.00 44 1015.1
20260902181523 97 69 4.0 7.0 0.00 0.00 0.00 44 1015.3
20260902181021 96 95 3.0 9.0 0.00 0.00 0.00 45 1015.4
20260902180519 96 153 4.0 9.0 0.00 0.00 0.00 46 1015.4
20260902180017 95 223 4.0 10.0 0.00 0.00 0.00 46 1015.6
20260902175535 94 78 3.0 8.0 0.00 0.00 0.00 47 1015.7
20260902175033 94 81 5.0 10.0 0.00 0.00 0.00 47 1015.8
20260902174531 95 15 3.0 6.0 0.00 0.00 0.00 46 1015.7
20260902174029 97 99 3.0 5.0 0.00 0.00 0.00 45 1015.8
20260902173527 96 114 2.0 6.0 0.00 0.00 0.00 45 1015.9
20260902173025 95 112 3.0 9.0 0.00 0.00 0.00 45 1016.0
20260902172523 95 41 3.0 5.0 0.00 0.00 0.00 45 1016.0
20260902172021 97 159 3.0 8.0 0.00 0.00 0.00 44 1016.1
20260902171519 96 167 2.0 4.0 0.00 0.00 0.00 45 1015.9
20260902171017 95 128 2.0 7.0 0.00 0.00 0.00 46 1016.2
20260902170555 96 104 3.0 7.0 0.00 0.00 0.00 45 1016.4
20260902170033 95 152 2.0 9.0 0.00 0.00 0.00 46 1016.4
20260902165531 93 92 2.0 7.0 0.00 0.00 0.00 47 1016.3
20260902165029 92 85 4.0 10.0 0.00 0.00 0.00 48 1016.4
20260902164527 93 77 5.0 8.0 0.00 0.00 0.00 48 1016.4
20260902164026 94 83 3.0 8.0 0.00 0.00 0.00 46 1016.5
20260902163543 94 86 1.0 4.0 0.00 0.00 0.00 47 1016.6
20260902163020 93 112 2.0 5.0 0.00 0.00 0.00 48 1016.6
20260902162518 92 88 4.0 6.0 0.00 0.00 0.00 48 1016.6
20260902162016 92 82 3.0 6.0 0.00 0.00 0.00 49 1016.5
20260902161614 92 90 3.0 6.0 0.00 0.00 0.00 49 1016.7
20260902161032 92 81 3.0 7.0 0.00 0.00 0.00 49 1016.5
20260902160530 92 201 2.0 6.0 0.00 0.00 0.00 50 1016.6
20260902160028 92 72 2.0 6.0 0.00 0.00 0.00 51 1016.7
20260902155526 93 126 2.0 5.0 0.00 0.00 0.00 49 1016.7
20260902155024 93 191 1.0 4.0 0.00 0.00 0.00 50 1016.7
20260902154522 92 168 1.0 5.0 0.00 0.00 0.00 51 1016.7
20260902154020 91 169 2.0 5.0 0.00 0.00 0.00 53 1016.6
20260902153518 91 96 3.0 5.0 0.00 0.00 0.00 54 1016.6
20260902153037 91 116 2.0 6.0 0.00 0.00 0.00 53 1016.5
20260902152554 91 161 2.0 5.0 0.00 0.00 0.00 53 1016.5
20260902152036 91 107 1.0 4.0 0.00 0.00 0.00 54 1016.6
20260902151530 90 118 2.0 5.0 0.00 0.00 0.00 55 1016.5
20260902151048 90 107 2.0 4.0 0.00 0.00 0.00 55 1016.5
20260902150526 89 96 2.0 6.0 0.00 0.00 0.00 56 1016.5
20260902150044 89 102 2.0 6.0 0.00 0.00 0.00 56 1016.4
20260902145523 89 109 3.0 6.0 0.00 0.00 0.00 56 1016.4
20260902145020 89 108 2.0 4.0 0.00 0.00 0.00 56 1016.4
20260902144518 89 126 2.0 5.0 0.00 0.00 0.00 57 1016.4
20260902144016 88 129 2.0 6.0 0.00 0.00 0.00 57 1016.5
20260902143534 88 110 3.0 5.0 0.00 0.00 0.00 58 1016.6
20260902143032 88 125 2.0 4.0 0.00 0.00 0.00 59 1016.6
20260902142529 87 184 2.0 5.0 0.00 0.00 0.00 59 1016.6
20260902142027 88 162 2.0 6.0 0.00 0.00 0.00 60 1016.6
20260902141525 87 130 2.0 6.0 0.00 0.00 0.00 60 1016.5
20260902141022 87 159 1.0 5.0 0.00 0.00 0.00 61 1016.4
20260902140521 86 126 2.0 6.0 0.00 0.00 0.00 61 1016.5
20260902140040 86 142 2.0 6.0 0.00 0.00 0.00 61 1016.7
20260902135516 86 142 2.0 4.0 0.00 0.00 0.00 62 1016.5
20260902135034 86 128 2.0 6.0 0.00 0.00 0.00 62 1016.7
20260902134533 85 125 2.0 4.0 0.00 0.00 0.00 63 1016.7
20260902134031 85 113 2.0 4.0 0.00 0.00 0.00 63 1016.6
20260902133528 84 126 2.0 4.0 0.00 0.00 0.00 64 1016.5
20260902133026 84 108 2.0 6.0 0.00 0.00 0.00 64 1016.3
20260902132524 84 127 2.0 5.0 0.00 0.00 0.00 64 1016.4
20260902132042 84 26 2.0 4.0 0.00 0.00 0.00 66 1016.3
20260902131521 83 110 2.0 4.0 0.00 0.00 0.00 66 1016.4
20260902131018 83 158 1.0 3.0 0.00 0.00 0.00 67 1016.2
20260902130535 83 84 1.0 4.0 0.00 0.00 0.00 68 1016.4
20260902130033 83 78 2.0 4.0 0.00 0.00 0.00 68 1016.3
20260902125532 82 59 2.0 3.0 0.00 0.00 0.00 68 1016.2
20260902125030 82 23 2.0 4.0 0.00 0.00 0.00 69 1016.2
20260902124548 82 58 1.0 3.0 0.00 0.00 0.00 69 1016.2
20260902124025 81 166 0.0 2.0 0.00 0.00 0.00 70 1016.1
20260902123523 80 146 1.0 2.0 0.00 0.00 0.00 71 1015.9
20260902123020 80 177 1.0 3.0 0.00 0.00 0.00 72 1015.9
20260902122518 79 175 1.0 3.0 0.00 0.00 0.00 73 1015.8